Satellite: FAST1-2
Catalog number: 37227
Epoch time:      11019.13957879
Element set:    0057
Inclination:      071.9728 deg
RA of node:       007.8425 deg
Eccentricity:    0.0018182
Arg of perigee:   203.2896 deg
Mean anomaly:     156.7400 deg
Mean motion:   14.76384927 rev/day
Decay rate:       -4.9e-07 rev/day^2
Epoch rev:           00886
Checksum:              328

/EX
SB KEPS @ AMSAT  $ORB11020.W
Orbital Elements  11020.WEATHER

HR AMSAT ORBITAL ELEMENTS FOR WEATHER SATELLITES
FROM WA5QGD FORT WORTH,TX January 20, 2011
Send Subscribe/unsubscribe to KEPS at http://www.amsat.org/mailman/listinfo/kep
BID: ORB11020.W
TO ALL RADIO AMATEURS BT

Satellite: NOAA-10
Catalog number: 16969
Epoch time:      11020.16971314
Element set:     365
Inclination:      098.6356 deg
RA of node:       051.8548 deg
Eccentricity:    0.0011669
Arg of perigee:   300.8616 deg
Mean anomaly:     059.1418 deg
Mean motion:   14.27441565 rev/day
Decay rate:        6.3e-07 rev/day^2
Epoch rev:           26653
Checksum:              306

Satellite: NOAA-11
Catalog number: 19531
Epoch time:      11020.26363139
Element set:     369
Inclination:      098.7589 deg
RA of node:       110.5058 deg
Eccentricity:    0.0010389
Arg of perigee:   249.8388 deg
Mean anomaly:     110.1650 deg
Mean motion:   14.14900825 rev/day
Decay rate:      -2.00e-06 rev/day^2
Epoch rev:           15183
Checksum:              284

Satellite: NOAA-12
Catalog number: 21263
Epoch time:      11020.42618242
Element set:     863
Inclination:      098.7585 deg
RA of node:       038.4785 deg
Eccentricity:    0.0011560
Arg of perigee:   256.2482 deg
Mean anomaly:     103.7415 deg
Mean motion:   14.25679410 rev/day
Decay rate:        3.4e-07 rev/day^2
Epoch rev:            2335
Checksum:              277

Satellite: MET-3/5
Catalog number: 21655
Epoch time:      11020.52688619
Element set:      17
Inclination:      082.5579 deg
RA of node:       155.0917 deg
Eccentricity:    0.0013925
Arg of perigee:   161.8478 deg
Mean anomaly:     198.3099 deg
Mean motion:   13.17025340 rev/day
Decay rate:        5.1e-07 rev/day^2
Epoch rev:           93428
Checksum:              311

Satellite: MET-2/21
Catalog number: 22782
Epoch time:      11019.72549645
Element set:     995
Inclination:      082.5473 deg
RA of node:       080.6752 deg
Eccentricity:    0.0023032
Arg of perigee:   151.5888 deg
Mean anomaly:     208.6539 deg
Mean motion:   13.83652451 rev/day
Decay rate:       -1.8e-07 rev/day^2
Epoch rev:           87802
Checksum:              323

Satellite: OKEAN-4
Catalog number: 23317
Epoch time:      11020.73683363
Element set:     452
Inclination:      082.5412 deg
RA of node:       150.7990 deg
Eccentricity:    0.0020634
Arg of perigee:   243.2935 deg
Mean anomaly:     116.6167 deg
Mean motion:   14.82927079 rev/day
Decay rate:       3.12e-06 rev/day^2
Epoch rev:           87869
Checksum:              301

Satellite: NOAA-14
Catalog number: 23455
Epoch time:      11020.40901815
Element set:     351
Inclination:      098.8619 deg
RA of node:       104.4677 deg
Eccentricity:    0.0009267
Arg of perigee:   344.5040 deg
Mean anomaly:     015.5855 deg
Mean motion:   14.13804861 rev/day
Decay rate:       -3.1e-07 rev/day^2
Epoch rev:           82819
Checksum:              288

Satellite: NOAA-15
Catalog number: 25338
Epoch time:      11020.35149605
Element set:     678
Inclination:      098.6400 deg
RA of node:       008.6302 deg
Eccentricity:    0.0010812
Arg of perigee:   158.2840 deg
Mean anomaly:     201.8811 deg
Mean motion:   14.24879746 rev/day
Decay rate:       1.78e-06 rev/day^2
Epoch rev:           65967
Checksum:              303

Satellite: RESURS
Catalog number: 25394
Epoch time:      11020.85569236
Element set:     704
Inclination:      098.2991 deg
RA of node:       031.9995 deg
Eccentricity:    0.0001209
Arg of perigee:   347.3170 deg
Mean anomaly:     012.7979 deg
Mean motion:   14.24221802 rev/day
Decay rate:       -4.0e-08 rev/day^2
Epoch rev:           65133
Checksum:              288

Satellite: FENGYUN1
Catalog number: 25730
Epoch time:      11020.34954501
Element set:     237
Inclination:      098.8041 deg
RA of node:       344.8943 deg
Eccentricity:    0.0022765
Arg of perigee:   007.6665 deg
Mean anomaly:     352.4836 deg
Mean motion:   14.08491344 rev/day
Decay rate:       -5.5e-07 rev/day^2
Epoch rev:           60225
Checksum:              287

Satellite: OKEAN-0
Catalog number: 25860
Epoch time:      11020.69279207
Element set:     208
Inclination:      097.8633 deg
RA of node:       351.3767 deg
Eccentricity:    0.0001878
Arg of perigee:   087.0915 deg
Mean anomaly:     273.0504 deg
Mean motion:   14.73702977 rev/day
Decay rate:        7.6e-07 rev/day^2
Epoch rev:           61893
Checksum:              318

Satellite: NOAA-16
Catalog number: 26536
Epoch time:      11020.32519910
Element set:     158
Inclination:      099.1565 deg
RA of node:       047.7581 deg
Eccentricity:    0.0011291
Arg of perigee:   088.4012 deg
Mean anomaly:     271.8452 deg
Mean motion:   14.12595476 rev/day
Decay rate:       2.12e-06 rev/day^2
Epoch rev:           53248
Checksum:              291

